Location: Three Guys Observatory
(38.6418°N, 87.1521°W)
Time: 15:34:49
(UTC-04:00)

ISS - Visible Passes

Search period start: 24 May 2016 00:00
Search period end: 03 June 2016 00:00
Orbit: 402 x 404 km, 51.6° (Epoch: 24 May)

Date Brightness Start Highest point End Pass type
(mag) Time Alt. Az. Time Alt. Az. Time Alt. Az.
24 May 0.1 01:47:29 12° N 01:47:29 12° N 01:48:00 10° NNE visible
24 May -0.1 04:59:16 10° NNW 05:01:08 14° NNE 05:02:59 10° NE visible
25 May 0.2 04:07:06 10° N 04:08:04 11° NNE 04:09:01 10° NNE visible
25 May -1.6 05:42:12 10° NW 05:45:16 36° NNE 05:48:19 10° ESE visible
26 May 0.2 01:36:18 10° NNW 01:37:15 11° NNW 01:38:13 10° N visible
26 May -0.6 04:49:42 10° NNW 04:52:22 22° NNE 04:55:01 10° E visible
26 May -1.3 21:30:24 10° SE 21:31:14 11° SE 21:32:05 10° ESE visible
26 May -3.1 23:04:00 10° WSW 23:07:15 70° NW 23:10:31 10° NE visible
27 May 0.0 00:42:19 10° NW 00:44:11 14° NNW 00:46:03 10° NNE visible
27 May -0.1 03:57:19 10° NNW 03:59:23 16° NNE 04:01:28 10° ENE visible
27 May -3.3 05:32:58 10° NW 05:36:14 86° NE 05:39:29 10° SE visible
27 May -3.3 22:11:20 10° SW 22:14:31 56° SE 22:17:43 10° ENE visible
27 May -0.5 23:48:40 10° WNW 23:51:10 20° NNW 23:53:40 10° NNE visible
28 May 0.2 03:05:03 10° N 03:06:19 12° NNE 03:07:36 10° NE visible
28 May -2.1 04:40:18 10° NW 04:43:26 43° NE 04:46:34 10° ESE visible
28 May -1.3 22:55:17 10° W 22:58:14 31° NNW 23:01:12 10° NE visible
29 May 0.4 00:34:57 10° NNW 00:35:29 10° NNW 00:36:01 10° N visible
29 May -1.0 03:47:45 10° NNW 03:50:32 25° NNE 03:53:20 10° E visible
29 May -2.8 05:24:01 10° WNW 05:27:02 35° SW 05:30:02 10° SSE visible
29 May -2.6 22:02:09 10° WSW 22:05:22 56° NW 22:08:35 10° NE visible
29 May 0.1 23:40:45 10° NW 23:42:23 13° NNW 23:44:01 10° NNE visible
30 May -0.3 02:55:18 10° NNW 02:57:34 17° NNE 02:59:50 10° ENE visible
30 May -3.5 04:31:04 10° NW 04:34:20 76° SW 04:37:34 10° SE visible
30 May -0.2 22:47:00 10° WNW 22:49:20 18° NNW 22:51:40 10° NNE visible
31 May 0.0 02:02:57 10° N 02:04:30 13° NNE 02:05:53 10° NE visible
31 May -0.9 21:53:30 10° W 21:56:20 27° NNW 21:59:11 10° NNE visible
01 Jun 0.3 01:11:07 10° N 01:11:23 10° N 01:11:39 10° NNE visible
01 Jun -0.2 02:45:45 10° NNW 02:45:59 12° NNW 02:45:59 12° NNW visible
01 Jun 0.0 22:39:09 10° NW 22:40:31 12° NNW 22:41:54 10° N visible
02 Jun -0.2 01:53:14 10° NNW 01:54:18 15° N 01:54:18 15° N visible
02 Jun -0.3 21:45:16 10° WNW 21:47:25 16° NNW 21:49:35 10° NNE visible
